This is the latest recevied weather packets stored in our database for station/object KG7MRB. If no packets are shown the sender has not sent any weather packets the latest 1 day(s).
| Time | Temp. | Humidity | Pressure | Rain* | Wind** | Luminosity | Snow |
|---|---|---|---|---|---|---|---|
| 1778042541 | 12.78° C | 92% | 1033.3 hPa | 0 mm | - | 0 W/m² | - |
| 1778042238 | 13.33° C | 91% | 1033.1 hPa | 0 mm | - | 0 W/m² | - |
| 1778041936 | 13.33° C | 91% | 1033 hPa | 0 mm | - | 0 W/m² | - |
| 1778041634 | 13.33° C | 90% | 1033.1 hPa | 0 mm | - | 0 W/m² | - |
| 1778041333 | 13.89° C | 89% | 1032.9 hPa | 0 mm | - | 0 W/m² | - |
| 1778041030 | 13.89° C | 89% | 1033 hPa | 0 mm | - | 0 W/m² | - |
| 1778040727 | 13.89° C | 87% | 1032.8 hPa | 0 mm | - | 0 W/m² | - |
| 1778040121 | 14.44° C | 87% | 1032.9 hPa | 0 mm | - | 0 W/m² | - |
| 1778039818 | 14.44° C | 86% | 1032.6 hPa | 0 mm | - | 0 W/m² | - |
| 1778039515 | 15° C | 85% | 1032.5 hPa | 0 mm | - | 0 W/m² | - |
| 1778038909 | 15° C | 85% | 1032.4 hPa | 0 mm | - | 1 W/m² | - |
| 1778038606 | 15° C | 83% | 1032.4 hPa | 0 mm | - | 2 W/m² | - |
| 1778038303 | 15° C | 83% | 1032.5 hPa | 0 mm | - | 3 W/m² | - |
| 1778038000 | 15.56° C | 83% | 1032.3 hPa | 0 mm | - | 4 W/m² | - |
| 1778037697 | 15.56° C | 83% | 1032.2 hPa | 0 mm | - | 6 W/m² | - |
| 1778037394 | 15.56° C | 82% | 1032.2 hPa | 0 mm | - | 8 W/m² | - |
| 1778037091 | 16.11° C | 81% | 1032.3 hPa | 0 mm | - | 11 W/m² | - |
| 1778036790 | 16.11° C | 81% | 1032.1 hPa | 0 mm | - | 13 W/m² | - |
| 1778036486 | 16.11° C | 81% | 1032.3 hPa | 0 mm | - | 15 W/m² | - |
| 1778036183 | 16.67° C | 81% | 1032 hPa | 0 mm | - | 18 W/m² | - |
| 1778035879 | 16.67° C | 80% | 1032.1 hPa | 0 mm | - | 20 W/m² | - |
| 1778035577 | 16.67° C | 80% | 1032.2 hPa | 0 mm | - | 22 W/m² | - |
| 1778035272 | 16.67° C | 80% | 1032 hPa | 0 mm | - | 24 W/m² | - |
| 1778034969 | 17.22° C | 79% | 1032 hPa | 0 mm | - | 26 W/m² | - |
| 1778034364 | 17.22° C | 79% | 1032 hPa | 0 mm | - | 31 W/m² | - |
* Rain latest hour (hover to see other rain measurements)
** Current wind speed in m/s (hover to see current wind gust speed)